Simultaneous Nadir Overpasses (SNOs) Predictions

Prediction of SNOs between GOES-14 and AQUA Satellite Orbit:

Table of predicted SNOs for the next 14.0 days since TLE Epoch: 4/30/2022
Index Date Time (GOES-14) GOES-14 Lat,Lon AQUA Lat,Lon Distance(km) Time Diff (sec)
1 05/01/2022 20:39:59 -0.09,-104.56 -0.24,-105.18 71.36 80
2 05/03/2022 20:24:53 -0.10,-104.56 0.43,-102.16 272.56 80
3 05/04/2022 08:46:04 0.08,-104.44 0.69,-107.30 325.16 80
4 05/06/2022 08:36:17 0.08,-104.44 0.05,-104.27 19.36 80
5 05/08/2022 08:23:50 0.09,-104.44 -0.62,-101.24 364.38 80
6 05/08/2022 20:45:10 -0.07,-104.58 -0.48,-106.42 209.13 80
7 05/10/2022 20:30:02 -0.08,-104.58 0.17,-103.38 135.78 80
8 05/11/2022 08:51:13 0.06,-104.43 0.94,-108.52 465.26 80
9 05/12/2022 20:17:34 -0.08,-104.58 0.84,-100.36 480.99 80
10 05/13/2022 08:38:45 0.06,-104.43 0.26,-105.49 119.61 80
